| time (UTC) | temp F | wind direction | speed knots | gust knots | rain 1hr in | rain 24hr in | rain mn in | humidity % | barometer mb |
| 20260505063018 | 51 | 358 | 13.0 | 19.1 | 0.00 | 0.00 | 0.00 | 80 | 1030.8 |
| 20260505062032 | 51 | 351 | 12.2 | 20.9 | 0.00 | 0.00 | 0.00 | 80 | 1031.0 |
| 20260505061027 | 51 | 356 | 11.3 | 23.5 | 0.00 | 0.00 | 0.00 | 80 | 1031.0 |
| 20260505060022 | 51 | 353 | 11.3 | 20.0 | 0.00 | 0.00 | 0.00 | 80 | 1031.0 |
| 20260505055018 | 51 | 356 | 10.4 | 16.5 | 0.00 | 0.00 | 0.00 | 79 | 1031.0 |
| 20260505054053 | 51 | 351 | 11.3 | 18.2 | 0.00 | 0.00 | 0.00 | 79 | 1030.9 |
| 20260505053028 | 52 | 357 | 11.3 | 20.0 | 0.00 | 0.00 | 0.00 | 78 | 1031.0 |
| 20260505052023 | 52 | 358 | 13.0 | 19.1 | 0.00 | 0.00 | 0.00 | 78 | 1031.0 |
| 20260505051018 | 52 | 357 | 11.3 | 20.0 | 0.00 | 0.00 | 0.00 | 77 | 1031.2 |
| 20260505041029 | 53 | 351 | 13.9 | 21.7 | 0.00 | 0.00 | 0.00 | 75 | 1031.2 |
| 20260505040024 | 53 | 354 | 14.8 | 23.5 | 0.00 | 0.00 | 0.00 | 74 | 1031.2 |
| 20260505035019 | 53 | 344 | 13.0 | 20.9 | 0.00 | 0.00 | 0.00 | 73 | 1031.2 |
| 20260505034034 | 53 | 342 | 12.2 | 23.5 | 0.00 | 0.00 | 0.00 | 74 | 1031.2 |
| 20260505033029 | 54 | 341 | 13.0 | 25.2 | 0.00 | 0.00 | 0.00 | 72 | 1031.3 |
| 20260505032024 | 55 | 336 | 13.9 | 26.1 | 0.00 | 0.00 | 0.00 | 70 | 1031.4 |
| 20260505031019 | 56 | 358 | 13.0 | 20.0 | 0.00 | 0.00 | 0.00 | 69 | 1031.3 |
| 20260505030034 | 58 | 343 | 11.3 | 18.2 | 0.00 | 0.00 | 0.00 | 67 | 1031.3 |
| 20260505025029 | 57 | 335 | 13.9 | 22.6 | 0.00 | 0.00 | 0.00 | 67 | 1031.3 |
| 20260505024025 | 58 | 355 | 13.0 | 23.5 | 0.00 | 0.00 | 0.00 | 67 | 1031.3 |
| 20260505023019 | 58 | 326 | 14.8 | 26.1 | 0.00 | 0.00 | 0.00 | 66 | 1031.4 |
| 20260505022034 | 57 | 340 | 13.9 | 20.0 | 0.00 | 0.00 | 0.00 | 69 | 1031.3 |
| 20260505021050 | 56 | 334 | 18.2 | 29.5 | 0.00 | 0.00 | 0.00 | 69 | 1031.3 |
| 20260505020025 | 56 | 345 | 14.8 | 25.2 | 0.00 | 0.00 | 0.00 | 70 | 1031.4 |
| 20260505015020 | 56 | 349 | 12.2 | 21.7 | 0.00 | 0.00 | 0.00 | 70 | 1031.5 |
| 20260505014035 | 56 | 350 | 16.5 | 26.1 | 0.00 | 0.00 | 0.00 | 69 | 1031.5 |
| 20260505013030 | 56 | 335 | 15.6 | 25.2 | 0.00 | 0.00 | 0.00 | 69 | 1031.8 |
| 20260505012024 | 56 | 347 | 16.5 | 25.2 | 0.00 | 0.00 | 0.00 | 69 | 1031.9 |
| 20260505011019 | 56 | 349 | 13.9 | 20.0 | 0.00 | 0.00 | 0.00 | 70 | 1032.1 |
| 20260505010035 | 56 | 344 | 15.6 | 26.1 | 0.00 | 0.00 | 0.00 | 70 | 1032.3 |
| 20260505005030 | 55 | 334 | 17.4 | 27.8 | 0.00 | 0.00 | 0.00 | 71 | 1032.5 |
| 20260505004025 | 56 | 346 | 13.9 | 20.0 | 0.00 | 0.00 | 0.00 | 71 | 1032.5 |
| 20260505003020 | 56 | 344 | 14.8 | 22.6 | 0.00 | 0.00 | 0.00 | 70 | 1032.8 |
| 20260505002035 | 55 | 339 | 13.9 | 20.0 | 0.00 | 0.00 | 0.00 | 72 | 1032.7 |
| 20260505001030 | 56 | 331 | 13.0 | 24.3 | 0.00 | 0.00 | 0.00 | 71 | 1032.8 |
| 20260505000025 | 55 | 333 | 13.9 | 27.8 | 0.00 | 0.00 | 0.00 | 71 | 1033.2 |
| 20260504235020 | 56 | 349 | 12.2 | 21.7 | 0.00 | 0.00 | 0.00 | 71 | 1033.1 |
| 20260504234035 | 55 | 350 | 15.6 | 24.3 | 0.00 | 0.00 | 0.00 | 72 | 1033.3 |
| 20260504233030 | 55 | 353 | 14.8 | 24.3 | 0.00 | 0.00 | 0.00 | 72 | 1033.4 |
| 20260504232026 | 55 | 346 | 14.8 | 21.7 | 0.00 | 0.00 | 0.00 | 71 | 1033.5 |
| 20260504231040 | 55 | 352 | 15.6 | 25.2 | 0.00 | 0.00 | 0.00 | 72 | 1033.5 |
| 20260504230016 | 55 | 2 | 13.0 | 20.9 | 0.00 | 0.00 | 0.00 | 72 | 1033.5 |
| 20260504225031 | 55 | 357 | 13.9 | 24.3 | 0.00 | 0.00 | 0.00 | 72 | 1033.7 |
| 20260504224025 | 54 | 360 | 13.0 | 23.5 | 0.00 | 0.00 | 0.00 | 72 | 1033.6 |
| 20260504223021 | 54 | 354 | 15.6 | 25.2 | 0.00 | 0.00 | 0.00 | 72 | 1033.6 |
| 20260504222016 | 54 | 352 | 11.3 | 18.2 | 0.00 | 0.00 | 0.00 | 73 | 1033.6 |
| 20260504221031 | 53 | 344 | 13.9 | 26.1 | 0.00 | 0.00 | 0.00 | 73 | 1033.6 |
| 20260504220026 | 53 | 347 | 12.2 | 23.5 | 0.00 | 0.00 | 0.00 | 73 | 1033.6 |
| 20260504215021 | 53 | 3 | 13.0 | 23.5 | 0.00 | 0.00 | 0.00 | 73 | 1033.6 |
| 20260504214016 | 53 | 347 | 13.9 | 22.6 | 0.00 | 0.00 | 0.00 | 74 | 1033.7 |
| 20260504213031 | 53 | 355 | 13.0 | 22.6 | 0.00 | 0.00 | 0.00 | 74 | 1033.7 |
| 20260504212026 | 53 | 347 | 13.9 | 20.9 | 0.00 | 0.00 | 0.00 | 74 | 1033.5 |
| 20260504211021 | 53 | 355 | 13.0 | 22.6 | 0.00 | 0.00 | 0.00 | 75 | 1033.6 |
| 20260504210016 | 53 | 340 | 13.9 | 24.3 | 0.00 | 0.00 | 0.00 | 75 | 1033.6 |
| 20260504205051 | 53 | 347 | 13.0 | 26.9 | 0.00 | 0.00 | 0.00 | 76 | 1033.7 |
| 20260504204026 | 53 | 348 | 12.2 | 22.6 | 0.00 | 0.00 | 0.00 | 76 | 1033.6 |
| 20260504203021 | 53 | 351 | 11.3 | 18.2 | 0.00 | 0.00 | 0.00 | 76 | 1033.5 |
| 20260504202016 | 53 | 349 | 13.9 | 21.7 | 0.00 | 0.00 | 0.00 | 76 | 1033.7 |
| 20260504201032 | 53 | 353 | 13.0 | 22.6 | 0.00 | 0.00 | 0.00 | 77 | 1033.6 |
| 20260504200027 | 53 | 355 | 14.8 | 22.6 | 0.00 | 0.00 | 0.00 | 77 | 1033.6 |
| 20260504195022 | 53 | 346 | 13.9 | 21.7 | 0.00 | 0.00 | 0.00 | 77 | 1033.5 |
| 20260504194037 | 52 | 358 | 12.2 | 20.0 | 0.00 | 0.00 | 0.00 | 77 | 1033.4 |
| 20260504193032 | 53 | 341 | 11.3 | 17.4 | 0.00 | 0.00 | 0.00 | 77 | 1033.4 |
| 20260504192027 | 53 | 352 | 12.2 | 20.9 | 0.00 | 0.00 | 0.00 | 76 | 1033.5 |
| 20260504191022 | 52 | 344 | 11.3 | 19.1 | 0.00 | 0.00 | 0.00 | 76 | 1033.4 |
| 20260504190017 | 52 | 329 | 13.0 | 23.5 | 0.00 | 0.00 | 0.00 | 77 | 1033.4 |
| 20260504185052 | 52 | 351 | 11.3 | 20.0 | 0.00 | 0.00 | 0.00 | 76 | 1033.4 |
| 20260504184027 | 52 | 345 | 11.3 | 19.1 | 0.00 | 0.00 | 0.00 | 74 | 1033.3 |
| 20260504183022 | 53 | 343 | 11.3 | 20.9 | 0.00 | 0.00 | 0.00 | 74 | 1033.3 |
| 20260504182018 | 53 | 347 | 12.2 | 25.2 | 0.00 | 0.00 | 0.00 | 75 | 1033.3 |
| 20260504181033 | 53 | 353 | 13.9 | 21.7 | 0.00 | 0.00 | 0.00 | 75 | 1033.3 |
| 20260504180028 | 53 | 352 | 14.8 | 22.6 | 0.00 | 0.00 | 0.00 | 74 | 1033.4 |
| 20260504175023 | 53 | 355 | 14.8 | 25.2 | 0.00 | 0.00 | 0.00 | 74 | 1033.4 |
| 20260504174038 | 53 | 348 | 13.0 | 20.9 | 0.00 | 0.00 | 0.00 | 74 | 1033.3 |
| 20260504173033 | 53 | 1 | 14.8 | 25.2 | 0.00 | 0.00 | 0.00 | 74 | 1033.2 |
| 20260504172028 | 53 | 358 | 13.9 | 23.5 | 0.00 | 0.00 | 0.00 | 74 | 1033.3 |
| 20260504171023 | 53 | 348 | 15.6 | 25.2 | 0.00 | 0.00 | 0.00 | 75 | 1033.2 |
| 20260504151044 | 53 | 348 | 12.2 | 20.9 | 0.00 | 0.00 | 0.00 | 76 | 1033.7 |
| 20260504141035 | 53 | 347 | 12.2 | 22.6 | 0.00 | 0.00 | 0.00 | 78 | 1034.0 |
| 20260504081018 | 53 | 1 | 11.3 | 20.9 | 0.00 | 0.00 | 0.00 | 78 | 1034.1 |